Flag for San Marino Weather past 2 weeks in San Marino, San Marino

Now
73 °F

Thunderstorms. Scattered clouds.


Feels Like: 70 °F
Forecast: 50 / 60 °F
Wind: N/A

Location: Rimini Airport

Current Time: Sep 22, 2014 at 6:40:19 PM

Latest Report: Sep 22, 2014 at 5:45 PM


Visibility: N/A

Pressure: 29.74 "Hg

Humidity: 94%

Dew point: 72 °F

Location of San MarinoLocation

Historic Weather in San Marino — Graph

°F

San Marino temperature yesterday

Maximum temperature yesterday: 75 °F (at 12:15 PM)
Minimum temperature yesterday: 66 °F (at 6:45 AM)
Average temperature yesterday: 72 °F

Past Weeks' High & Low Weather Summary

 TemperatureHumidityPressure
High79 °F (Sep 22, 12:15 PM)100% (Sep 7, 10:45 PM)30.09 "Hg (Sep 7, 10:45 PM)
Low55 °F (Sep 13, 5:15 AM)2% (Sep 7, 8:45 PM)29.74 "Hg (Sep 22, 5:15 PM)
Average68 °F87%29.95 "Hg
* Reported Sep 7 5:15 PM — Sep 22 5:15 PM, San Marino, Weather by CustomWeather, © 2014

Note: Actual official high and low records may vary slightly from our data, if they occured in-between our weather recording intervals... More about our weather records

Advertising

San Marino weather history for previous 24 hours

 ConditionsComfort  
Time TempWeatherWind HumidityBarometerVisibility
5:15 PM
Sep 22
73 °FThunderstorms. Scattered clouds.N/A89%29.74 "HgN/A
4:45 PM75 °FScattered clouds.N/A83%29.77 "HgN/A
4:15 PM75 °FScattered clouds.N/A83%29.77 "HgN/A
3:45 PM77 °FPassing clouds.N/A83%29.77 "HgN/A
3:15 PM77 °FPassing clouds.N/A83%29.77 "HgN/A
2:45 PM75 °FPassing clouds.N/A83%29.77 "HgN/A
2:15 PM75 °FThunderstorms. Scattered clouds.N/A83%29.77 "HgN/A
1:45 PM77 °FThunderstorms. Scattered clouds.N/A79%29.80 "HgN/A
1:15 PM77 °FPassing clouds.N/A74%29.80 "HgN/A
12:45 PM77 °FPassing clouds.N/A74%29.80 "HgN/A
12:15 PM79 °FPassing clouds.N/A70%29.80 "HgN/A
11:45 AM77 °FPassing clouds.N/A74%29.83 "HgN/A
11:15 AM75 °FSunny.N/A69%29.83 "Hg10 mi
10:45 AM73 °FSunny.N/A78%29.83 "Hg10 mi
10:15 AM73 °FSunny.N/A78%29.83 "Hg10 mi
9:45 AM72 °FSunny.N/A83%29.80 "Hg10 mi
9:15 AM72 °FSunny.N/A83%29.80 "Hg10 mi
8:45 AM68 °FSunny.N/A94%29.80 "Hg10 mi
8:15 AM66 °FSunny.N/A94%29.80 "Hg10 mi
7:45 AM66 °FClear.N/A94%29.80 "Hg10 mi
7:15 AM66 °FClear.N/A94%29.80 "Hg10 mi
6:45 AM66 °FPassing clouds.N/A88%29.80 "HgN/A
6:15 AM66 °FPassing clouds.N/A88%29.80 "HgN/A
5:45 AM68 °FPassing clouds.N/A83%29.80 "HgN/A
5:15 AM68 °FPassing clouds.N/A83%29.80 "HgN/A
4:45 AM68 °FPassing clouds.N/A83%29.80 "HgN/A
4:15 AM68 °FPassing clouds.N/A83%29.83 "HgN/A
3:45 AM66 °FPassing clouds.N/A88%29.83 "HgN/A
3:15 AM66 °FClear.N/A88%29.83 "Hg10 mi
2:45 AM68 °FClear.N/A83%29.83 "Hg10 mi
2:15 AM68 °FClear.N/A83%29.83 "Hg10 mi
1:15 AM68 °FClear.N/A83%29.86 "Hg10 mi
12:45 AM70 °FClear.N/A78%29.89 "Hg10 mi
12:15 AM70 °FClear.N/A78%29.89 "Hg10 mi
11:45 PM
Sep 21
70 °FClear.N/A78%29.89 "Hg10 mi
11:15 PM70 °FClear.N/A83%29.89 "Hg10 mi
10:45 PM70 °FClear.N/A83%29.89 "Hg10 mi
10:15 PM68 °FClear.N/A88%29.89 "Hg10 mi
9:45 PM70 °FClear.N/A94%29.89 "Hg10 mi
9:15 PM70 °FClear.N/A94%29.89 "Hg10 mi
8:45 PM70 °FClear.N/A94%29.89 "Hg10 mi
8:15 PM72 °FClear.N/A94%29.89 "Hg10 mi
7:45 PM73 °FSunny.N/A94%29.89 "Hg10 mi
7:15 PM73 °FClear.N/A94%29.89 "Hg5 mi
6:45 PM73 °FClear.N/A94%29.89 "HgN/A
Weather by CustomWeather, © 2014

See weather overviewHow to use our weather pages